[[{"header":{"parameterUnit":"m.s-1","parameterCategory":1,"la1":30.2991,"la2":30.254,"lo1":-89.0895,"lo2":-89.0444,"dy":0.0017,"dx":0.0017,"nx":28,"ny":28,"refTime":"2023-11-12T09:00:00:Z","depth":0,"parameterNumber":2,"parameterNumberName":"U-component_of_WINDS"},"data":[0,0,0,0,0,0,0,0,0,0,0,0,0,0,0,0,0,0,0,0,0,0,0,0,0,0,0,0,0,0,0,0,0,0,0,0,0,0,0,0,0,0,0,0,0,0,0,0,0,0,0,0,0,0,0,0,0,0,-1.3862,-1.3862,0,-1.3947,-1.3948,-1.3949,-1.3942,-1.3941,-1.3939,-1.3938,-1.403,-1.4033,-1.4037,0,0,0,0,0,0,0,0,0,0,0,0,0,-1.3695,-1.3698,-1.3861,-1.3863,-1.3864,-1.3947,-1.3948,-1.395,-1.3942,-1.3941,-1.3939,-1.3938,-1.4029,-1.4033,-1.4037,0,0,0,0,0,0,0,0,0,0,0,0,0,-1.3773,-1.3699,-1.3861,-1.387,-1.3872,-1.3947,-1.3948,-1.395,-1.3943,-1.3941,-1.3939,-1.3937,-1.4027,-1.4033,-1.4038,-1.4111,0,0,-1.4055,-1.4057,0,0,0,0,0,0,0,0,-1.3768,-1.3779,-1.3868,-1.3869,-1.3871,-1.3932,-1.3923,-1.4004,-1.3943,-1.3916,-1.3938,-1.3936,-1.3999,-1.4007,-1.4027,-1.4116,-1.412,-1.4055,-1.4059,-1.4061,-1.4063,0,0,0,0,0,0,0,-1.3763,-1.3775,-1.3896,-1.3869,-1.3871,-1.3871,-1.388,-1.3938,-1.3968,-1.3918,-1.3918,-1.3928,-1.4,-1.4022,-1.4029,-1.4121,-1.4055,-1.406,-1.4063,-1.4066,-1.4275,-1.4277,0,0,0,0,0,0,-1.3755,-1.3771,-1.3893,-1.3898,-1.3814,-1.3875,-1.3885,-1.3915,-1.3967,-1.3973,-1.3929,-1.3927,-1.4014,-1.4023,-1.4033,-1.4123,-1.4061,-1.4066,-1.4069,-1.4272,-1.4275,-1.4278,0,0,0,0,0,0,-1.3751,-1.3766,-1.3889,-1.3834,-1.385,-1.388,-1.3913,-1.3917,-1.3939,-1.3975,-1.3981,-1.3946,-1.4012,-1.4025,-1.4092,-1.4126,-1.4069,-1.4074,-1.427,-1.4273,-1.4276,-1.4303,0,0,0,0,0,0,-1.3747,-1.3765,-1.3792,-1.3835,-1.3853,-1.3946,-1.3915,-1.392,-1.3949,-1.3946,-1.3993,-1.3999,-1.4012,-1.4084,-1.4097,-1.4132,-1.4078,-1.4267,-1.4271,-1.4275,-1.4299,-1.4307,-1.4314,0,0,0,0,0,-1.3741,-1.3797,-1.3794,-1.3808,-1.3888,-1.3948,-1.3958,-1.3971,-1.3951,-1.398,-1.4003,-1.3997,-1.4119,-1.409,-1.4106,-1.4143,-1.4265,-1.427,-1.4275,-1.4296,-1.4306,-1.4313,0,0,0,0,0,0,-1.3759,-1.3803,-1.3799,-1.3871,-1.3906,-1.3947,-1.3983,-1.3981,-1.4023,-1.4019,-1.4034,-1.4045,-1.4112,-1.4134,-1.4101,-1.4217,-1.419,-1.4198,-1.4201,-1.421,-1.4217,-1.4211,-1.4082,0,0,0,0,0,-1.3771,-1.3815,-1.3851,-1.3911,-1.3928,-1.3953,-1.3979,-1.3986,-1.4023,-1.4038,-1.4066,-1.4104,-1.415,-1.4181,-1.4226,-1.4302,-1.4313,-1.4335,-1.4342,-1.4348,-1.4356,-1.4398,-1.4409,-1.4294,-1.4294,-1.4294,0,0,-1.3797,-1.3826,-1.3853,-1.3915,-1.3943,-1.399,-1.3965,-1.4016,-1.4051,-1.4046,-1.4111,-1.4133,-1.4176,-1.4247,-1.4281,-1.4268,-1.4389,-1.4354,-1.4359,-1.4363,-1.4405,-1.4415,-1.4425,-1.4298,-1.4297,-1.4297,0,0,-1.3868,-1.3894,-1.3947,-1.3975,-1.4016,-1.4032,-1.4045,-1.4086,-1.41,-1.4165,-1.4163,-1.4205,-1.4285,-1.4316,-1.4342,-1.4424,-1.4421,-1.4439,-1.4476,-1.4518,-1.4527,-1.4535,-1.4565,-1.4576,-1.4446,-1.4446,-1.4446,0,-1.3895,-1.3964,-1.3975,-1.4025,-1.4053,-1.405,-1.4104,-1.4131,-1.4186,-1.4206,-1.419,-1.4291,-1.4319,-1.4399,-1.4419,-1.4439,-1.4455,-1.4434,-1.4524,-1.4533,-1.454,-1.457,-1.4581,-1.4448,-1.4447,-1.4447,-1.4447,0,-1.3996,-1.4044,-1.4082,-1.4134,-1.4166,-1.4218,-1.4238,-1.4269,-1.4273,-1.429,-1.4357,-1.4391,-1.4443,-1.4462,-1.4466,-1.4542,-1.4533,-1.4521,-1.4494,-1.4553,-1.4581,-1.4592,-1.445,-1.445,-1.4449,-1.4449,0,0,-1.4083,-1.4139,-1.4153,-1.4176,-1.4222,-1.426,-1.4312,-1.4362,-1.4389,-1.4427,-1.4472,-1.4539,-1.4528,-1.4558,-1.4566,-1.4602,-1.4666,-1.4585,-1.4587,-1.46,-1.4753,-1.4763,-1.4776,-1.4664,-1.4666,-1.4668,-1.475,0,-1.4159,-1.4251,-1.4262,-1.4344,-1.4389,-1.4386,-1.4432,-1.4466,-1.4483,-1.4525,-1.4545,-1.4593,-1.4574,-1.4592,-1.4627,-1.4651,-1.4697,-1.4645,-1.4708,-1.471,-1.4698,-1.479,-1.4801,-1.4877,-1.4761,-1.4763,-1.4764,0,-1.4262,-1.4301,-1.4387,-1.4427,-1.4446,-1.4487,-1.4534,-1.4573,-1.4611,-1.4622,-1.4654,-1.4657,-1.4713,-1.4682,-1.476,-1.4724,-1.475,-1.4765,-1.4768,-1.4776,-1.4742,-1.4802,-1.4901,-1.4913,-1.4781,-1.478,-1.4778,0,-1.4317,-1.4392,-1.4454,-1.4474,-1.4521,-1.455,-1.4571,-1.4607,-1.4636,-1.4677,-1.4697,-1.4744,-1.477,-1.4807,-1.4823,-1.4799,-1.49,-1.4871,-1.4912,-1.4911,-1.4934,-1.4933,-1.5041,-1.4949,-1.4949,-1.4948,-1.4948,0,-1.4403,-1.4456,-1.4479,-1.4517,-1.4577,-1.4589,-1.4649,-1.4669,-1.4701,-1.4744,-1.4744,-1.4784,-1.4803,-1.4846,-1.4859,-1.4922,-1.4934,-1.4945,-1.4948,-1.4945,-1.4944,-1.4964,-1.496,-1.4952,-1.4951,-1.495,-1.495,0,-1.4476,-1.4493,-1.456,-1.4599,-1.461,-1.4653,-1.4686,-1.4724,-1.474,-1.4795,-1.4808,-1.4835,-1.4886,-1.4906,-1.4968,-1.4977,-1.505,-1.5048,-1.5037,-1.5038,-1.5079,-1.5075,-1.5204,-1.5223,-1.5117,-1.5118,-1.5119,0,-1.453,-1.4571,-1.4614,-1.4642,-1.4663,-1.4709,-1.4738,-1.4752,-1.4782,-1.4829,-1.4861,-1.4912,-1.4953,-1.5035,-1.5061,-1.511,-1.511,-1.5152,-1.5117,-1.5114,-1.5112,-1.511,-1.5115,-1.5159,-1.516,-1.5161,-1.5161,0,-1.4625,-1.4631,-1.4673,-1.4718,-1.4753,-1.4789,-1.4825,-1.4848,-1.4867,-1.4902,-1.4953,-1.4985,-1.5049,-1.51,-1.5149,-1.5172,-1.5171,-1.5172,-1.5184,-1.5183,-1.5175,-1.5181,-1.5056,-1.5169,-1.5168,-1.5168,-1.5167,-1.5167,-1.4691,-1.4727,-1.4763,-1.481,-1.4837,-1.487,-1.4907,-1.4928,-1.4971,-1.5023,-1.5028,-1.5085,-1.5122,-1.5188,-1.5213,-1.5258,-1.5247,-1.5264,-1.5269,-1.5274,-1.5277,-1.5166,-1.5267,-1.5267,-1.5267,-1.5266,-1.5266,0,-1.4786,-1.4809,-1.4852,-1.4901,-1.4938,-1.4931,-1.497,-1.5002,-1.5051,-1.5085,-1.5125,-1.5185,-1.5234,-1.5264,-1.5313,-1.5344,-1.5344,-1.5356,-1.5355,-1.5361,-1.5284,-1.5269,-1.5355,-1.5355,-1.5355,-1.5355,-1.5355,-1.5355,-1.4841,-1.4902,-1.4913,-1.4988,-1.5011,-1.5064,-1.5087,-1.5118,-1.5146,-1.5212,-1.5252,-1.5271,-1.5304,-1.5355,-1.5401,-1.5408,-1.5427,-1.544,-1.5447,-1.5375,-1.5366,-1.5357,-1.5343,-1.5444,-1.5444,-1.5521,-1.5521,-1.5522]},{"header":{"parameterUnit":"m.s-1","parameterCategory":1,"la1":30.2991,"la2":30.254,"lo1":-89.0895,"lo2":-89.0444,"dy":0.0017,"dx":0.0017,"nx":28,"ny":28,"refTime":"2023-11-12T09:00:00:Z","depth":0,"parameterNumber":3,"parameterNumberName":"V-component_of_WINDS"},"data":[0,0,0,0,0,0,0,0,0,0,0,0,0,0,0,0,0,0,0,0,0,0,0,0,0,0,0,0,0,0,0,0,0,0,0,0,0,0,0,0,0,0,0,0,0,0,0,0,0,0,0,0,0,0,0,0,0,0,-4.8605,-4.8606,0,-4.8672,-4.8673,-4.8674,-4.8611,-4.8609,-4.8606,-4.8604,-4.8668,-4.8672,-4.8676,0,0,0,0,0,0,0,0,0,0,0,0,0,-4.8418,-4.8422,-4.8605,-4.8606,-4.8607,-4.8672,-4.8673,-4.8674,-4.8612,-4.8609,-4.8606,-4.8603,-4.8667,-4.8671,-4.8676,0,0,0,0,0,0,0,0,0,0,0,0,0,-4.8494,-4.8423,-4.8605,-4.8584,-4.8583,-4.8672,-4.8673,-4.8674,-4.8612,-4.8609,-4.8605,-4.8601,-4.8665,-4.8671,-4.8677,-4.8789,0,0,-4.8695,-4.8698,0,0,0,0,0,0,0,0,-4.8489,-4.8501,-4.8586,-4.8585,-4.8584,-4.863,-4.863,-4.8713,-4.8613,-4.8601,-4.8604,-4.86,-4.8658,-4.8664,-4.8685,-4.8792,-4.8795,-4.8696,-4.87,-4.8702,-4.8704,0,0,0,0,0,0,0,-4.8484,-4.8497,-4.8631,-4.8587,-4.8586,-4.8569,-4.8576,-4.8646,-4.8649,-4.8602,-4.8597,-4.8606,-4.8657,-4.8679,-4.8686,-4.8796,-4.8696,-4.8701,-4.8705,-4.8707,-4.8998,-4.9001,0,0,0,0,0,0,-4.8482,-4.8493,-4.8629,-4.8634,-4.8527,-4.8576,-4.8583,-4.8619,-4.8649,-4.865,-4.861,-4.8603,-4.8671,-4.8679,-4.8688,-4.8821,-4.8702,-4.8708,-4.8711,-4.8993,-4.8998,-4.9003,0,0,0,0,0,0,-4.8478,-4.8495,-4.8627,-4.8562,-4.8578,-4.8583,-4.8624,-4.8622,-4.8645,-4.8655,-4.8654,-4.8632,-4.8668,-4.8679,-4.8765,-4.8823,-4.871,-4.8716,-4.8989,-4.8995,-4.9001,-4.9089,0,0,0,0,0,0,-4.8473,-4.8494,-4.8538,-4.8564,-4.8582,-4.8704,-4.8627,-4.8626,-4.8656,-4.8648,-4.8676,-4.8677,-4.8666,-4.8756,-4.8771,-4.8829,-4.8721,-4.8983,-4.8991,-4.8999,-4.9081,-4.9097,-4.9112,0,0,0,0,0,-4.8467,-4.8559,-4.854,-4.8557,-4.8637,-4.8708,-4.8717,-4.8705,-4.8661,-4.8704,-4.871,-4.8676,-4.8814,-4.8765,-4.8781,-4.8842,-4.898,-4.8989,-4.8998,-4.9074,-4.9094,-4.9111,0,0,0,0,0,0,-4.8538,-4.8562,-4.8542,-4.8645,-4.8675,-4.8697,-4.8751,-4.8726,-4.8768,-4.8759,-4.8739,-4.8746,-4.8836,-4.8847,-4.8793,-4.8952,-4.8889,-4.8902,-4.8942,-4.8961,-4.8976,-4.8971,-4.8726,0,0,0,0,0,-4.8566,-4.8623,-4.864,-4.873,-4.8746,-4.8747,-4.8777,-4.8764,-4.8794,-4.8805,-4.8818,-4.8846,-4.8896,-4.8929,-4.8975,-4.9082,-4.9087,-4.9132,-4.9147,-4.9159,-4.9171,-4.9228,-4.9248,-4.9033,-4.9033,-4.9033,0,0,-4.8624,-4.8644,-4.8681,-4.8745,-4.8766,-4.8824,-4.8757,-4.8821,-4.8864,-4.8814,-4.8896,-4.8906,-4.8936,-4.9033,-4.9076,-4.9045,-4.9231,-4.9171,-4.9181,-4.9186,-4.9239,-4.926,-4.9278,-4.9039,-4.9038,-4.9037,0,0,-4.8759,-4.8781,-4.8858,-4.8881,-4.8915,-4.8915,-4.8934,-4.8959,-4.8965,-4.9047,-4.9011,-4.906,-4.9146,-4.9169,-4.9192,-4.9336,-4.9306,-4.9352,-4.9432,-4.9487,-4.9504,-4.9519,-4.9571,-4.9589,-4.9363,-4.9363,-4.9363,0,-4.8826,-4.8914,-4.89,-4.8968,-4.8996,-4.8956,-4.9033,-4.9056,-4.9103,-4.9123,-4.9087,-4.9195,-4.9212,-4.9314,-4.9349,-4.9369,-4.9389,-4.9349,-4.9503,-4.9518,-4.9532,-4.9581,-4.96,-4.9368,-4.9368,-4.9367,-4.9367,0,-4.8995,-4.9057,-4.9115,-4.9163,-4.9198,-4.927,-4.9265,-4.9302,-4.9287,-4.9289,-4.9373,-4.9392,-4.9442,-4.9465,-4.945,-4.9564,-4.9544,-4.9507,-4.9443,-4.9558,-4.9604,-4.9622,-4.9376,-4.9374,-4.9373,-4.9371,0,0,-4.9178,-4.9218,-4.9239,-4.9261,-4.9295,-4.9342,-4.9411,-4.9461,-4.9493,-4.9526,-4.9583,-4.9657,-4.9623,-4.9649,-4.9636,-4.9685,-4.9798,-4.9641,-4.9641,-4.967,-4.9925,-4.9953,-4.9975,-4.9777,-4.9781,-4.9784,-4.9922,0,-4.9315,-4.9438,-4.9427,-4.9543,-4.9599,-4.9561,-4.9621,-4.9648,-4.9652,-4.9699,-4.9702,-4.9755,-4.9706,-4.9722,-4.9768,-4.9774,-4.9849,-4.9764,-4.9829,-4.9832,-4.9824,-4.9999,-5.0029,-5.0159,-4.994,-4.9943,-4.9945,0,-4.9491,-4.9533,-4.9655,-4.9681,-4.9704,-4.9759,-4.9804,-4.9849,-4.9878,-4.9878,-4.9907,-4.9886,-4.9954,-4.9889,-4.9982,-4.9925,-4.9951,-4.9957,-4.9962,-4.9968,-4.9896,-5.0009,-5.02,-5.022,-4.9973,-4.9971,-4.9969,0,-4.9612,-4.9698,-4.9783,-4.9802,-4.9835,-4.9874,-4.9889,-4.9915,-4.9945,-4.9984,-5.0003,-5.0048,-5.0073,-5.0108,-5.0099,-5.0052,-5.0194,-5.0128,-5.0195,-5.0195,-5.0226,-5.0225,-5.0424,-5.0243,-5.0242,-5.0242,-5.0242,0,-4.9767,-4.9843,-4.9838,-4.989,-4.9973,-4.9959,-5.0042,-5.0052,-5.0075,-5.0127,-5.0095,-5.0144,-5.0129,-5.0176,-5.0169,-5.0247,-5.0258,-5.0259,-5.0256,-5.0262,-5.0262,-5.0279,-5.027,-5.0247,-5.0246,-5.0245,-5.0244,0,-4.9916,-4.9916,-5.0006,-5.003,-5.0037,-5.0098,-5.0117,-5.0165,-5.0167,-5.0233,-5.0248,-5.025,-5.0305,-5.0299,-5.0359,-5.0354,-5.0451,-5.0437,-5.0442,-5.0439,-5.0506,-5.05,-5.0723,-5.0752,-5.0552,-5.0554,-5.0555,0,-5.0015,-5.0073,-5.0104,-5.0138,-5.0156,-5.021,-5.0242,-5.0229,-5.0263,-5.0301,-5.0344,-5.0396,-5.0437,-5.0525,-5.0531,-5.0577,-5.0564,-5.0639,-5.0571,-5.0575,-5.0566,-5.0563,-5.0568,-5.0653,-5.0655,-5.0657,-5.0659,0,-5.0191,-5.0188,-5.0236,-5.0284,-5.0323,-5.036,-5.0393,-5.0422,-5.0412,-5.0452,-5.0508,-5.054,-5.0603,-5.0654,-5.0698,-5.0711,-5.0684,-5.068,-5.0698,-5.0705,-5.0706,-5.0707,-5.0479,-5.0675,-5.0674,-5.0672,-5.0672,-5.0671,-5.0318,-5.0368,-5.0398,-5.0452,-5.0476,-5.0508,-5.0555,-5.0563,-5.061,-5.0662,-5.065,-5.0714,-5.074,-5.0796,-5.0814,-5.0862,-5.0834,-5.086,-5.0867,-5.0874,-5.0882,-5.0698,-5.087,-5.0869,-5.0869,-5.0868,-5.0868,0,-5.0493,-5.051,-5.056,-5.0609,-5.0651,-5.0623,-5.0658,-5.0695,-5.0752,-5.078,-5.0821,-5.0885,-5.0935,-5.0945,-5.0993,-5.1029,-5.1018,-5.1042,-5.1039,-5.1043,-5.0903,-5.0884,-5.1051,-5.1051,-5.1051,-5.1051,-5.1051,-5.105,-5.0588,-5.0672,-5.0672,-5.0766,-5.0782,-5.0846,-5.0868,-5.0897,-5.0919,-5.0993,-5.1035,-5.1042,-5.1062,-5.1111,-5.1155,-5.1156,-5.1175,-5.1205,-5.1201,-5.1071,-5.1053,-5.1035,-5.1017,-5.1209,-5.1209,-5.1337,-5.1338,-5.1339]}]]